When you browse on this site, cookies collect data to enhance your experience and personalize the content and advertising you see.
Visit our Privacy Policy to learn more. By continuing to use the site, you agree to this use of cookies and data.
  • In Slovakia
  • List of Countries
  • For 7 days
  • Water Temperature
  • Weather Map
  • Weather Widgets
  • user-avatar
    Login

    Hourly Weather Lizhma

    Today, 5 April, Sunday

    Time Temperature Precipitation Wind Pressure Humidity
    00:00 -4°C° 0 mm 2 mps 754 mmHg 86%
    01:00 -4°C° 0 mm 2 mps 755 mmHg 86%
    02:00 -6°C° 0 mm 3 mps 755 mmHg 88%
    03:00 -6°C° 0 mm 3 mps 755 mmHg 88%
    04:00 -7°C° 0 mm 3 mps 756 mmHg 89%
    05:00 -7°C° 0 mm 3 mps 756 mmHg 89%
    06:00 -6°C° 0 mm 3 mps 756 mmHg 85%
    07:00 -5°C° 0 mm 3 mps 757 mmHg 80%
    08:00 -3°C° 0 mm 4 mps 757 mmHg 77%
    09:00 -3°C° 0.1 mm 4 mps 758 mmHg 75%
    10:00 -2°C° 0.1 mm 4 mps 758 mmHg 73%
    11:00 -1°C° 0.1 mm 4 mps 759 mmHg 71%
    12:00 -1°C° 0.3 mm 4 mps 759 mmHg 69%
    13:00 -1°C° 0.3 mm 4 mps 760 mmHg 68%
    14:00 -1°C° 0.3 mm 4 mps 760 mmHg 67%
    15:00 -1°C° 0.2 mm 4 mps 761 mmHg 68%
    16:00 0°C° 0.2 mm 3 mps 761 mmHg 68%
    17:00 -1°C° 0.2 mm 3 mps 762 mmHg 69%
    18:00 -2°C° 0.1 mm 3 mps 762 mmHg 72%
    19:00 -4°C° 0.1 mm 3 mps 763 mmHg 75%
    20:00 -4°C° 0.1 mm 3 mps 763 mmHg 77%
    21:00 -5°C° 0 mm 3 mps 764 mmHg 78%
    22:00 -5°C° 0 mm 3 mps 764 mmHg 78%
    23:00 -5°C° 0 mm 3 mps 765 mmHg 79%

    Tomorrow, 6 April, Monday

    Time Temperature Precipitation Wind Pressure Humidity
    00:00 -6°C° 0 mm 3 mps 765 mmHg 80%
    01:00 -6°C° 0 mm 3 mps 766 mmHg 80%
    02:00 -6°C° 0 mm 3 mps 766 mmHg 81%
    03:00 -7°C° 0 mm 3 mps 766 mmHg 82%
    04:00 -6°C° 0 mm 2 mps 767 mmHg 83%
    05:00 -7°C° 0 mm 2 mps 767 mmHg 84%
    06:00 -6°C° 0 mm 2 mps 767 mmHg 80%
    07:00 -5°C° 0 mm 2 mps 768 mmHg 76%
    08:00 -4°C° 0 mm 2 mps 768 mmHg 72%
    09:00 -3°C° 0 mm 2 mps 768 mmHg 66%
    10:00 -2°C° 0 mm 2 mps 769 mmHg 61%
    11:00 -1°C° 0 mm 2 mps 769 mmHg 55%
    12:00 -1°C° 0 mm 2 mps 769 mmHg 53%
    13:00 -1°C° 0 mm 2 mps 769 mmHg 51%
    14:00 +1°C° 0 mm 2 mps 769 mmHg 49%
    15:00 +1°C° 0 mm 2 mps 769 mmHg 52%
    16:00 +1°C° 0 mm 1 mps 769 mmHg 55%
    17:00 +1°C° 0 mm 1 mps 769 mmHg 58%
    18:00 0°C° 0 mm 1 mps 769 mmHg 61%
    19:00 -1°C° 0 mm 1 mps 769 mmHg 65%
    20:00 -2°C° 0 mm 1 mps 769 mmHg 68%
    21:00 -2°C° 0 mm 1 mps 769 mmHg 69%
    22:00 -2°C° 0 mm 1 mps 769 mmHg 69%
    23:00 -2°C° 0 mm 1 mps 769 mmHg 70%

    Day after tomorrow, 7 April, Tuesday

    Time Temperature Precipitation Wind Pressure Humidity
    00:00 -2°C° 0 mm 1 mps 769 mmHg 71%
    01:00 -4°C° 0 mm 2 mps 769 mmHg 71%
    02:00 -3°C° 0 mm 2 mps 768 mmHg 71%
    03:00 -3°C° 0 mm 2 mps 768 mmHg 72%
    04:00 -4°C° 0 mm 2 mps 767 mmHg 74%
    05:00 -5°C° 0 mm 3 mps 766 mmHg 75%
    06:00 -4°C° 0.1 mm 3 mps 766 mmHg 79%
    07:00 -4°C° 0.1 mm 3 mps 765 mmHg 84%
    08:00 -3°C° 0.1 mm 4 mps 764 mmHg 88%
    09:00 -3°C° 0 mm 4 mps 764 mmHg 88%
    10:00 -2°C° 0 mm 4 mps 763 mmHg 87%
    11:00 -1°C° 0 mm 4 mps 762 mmHg 86%
    12:00 0°C° 0 mm 4 mps 761 mmHg 84%
    13:00 +1°C° 0 mm 4 mps 760 mmHg 82%
    14:00 +3°C° 0 mm 4 mps 759 mmHg 81%
    15:00 +3°C° 0 mm 3 mps 759 mmHg 83%
    16:00 +3°C° 0 mm 3 mps 758 mmHg 85%
    17:00 +4°C° 0 mm 2 mps 757 mmHg 87%
    18:00 +4°C° 0 mm 2 mps 756 mmHg 88%
    19:00 +3°C° 0 mm 2 mps 755 mmHg 89%
    20:00 +3°C° 0 mm 2 mps 754 mmHg 89%
    21:00 +3°C° 0.1 mm 2 mps 754 mmHg 91%
    22:00 +3°C° 0.1 mm 2 mps 753 mmHg 93%
    23:00 +2°C° 0.1 mm 3 mps 753 mmHg 94%

    8 April, Wednesday

    Time Temperature Precipitation Wind Pressure Humidity
    00:00 +2°C° 0.2 mm 3 mps 753 mmHg 93%
    01:00 +1°C° 0.2 mm 4 mps 753 mmHg 91%
    02:00 +1°C° 0.2 mm 5 mps 754 mmHg 89%
    03:00 +1°C° 0 mm 5 mps 755 mmHg 87%
    04:00 +1°C° 0 mm 5 mps 755 mmHg 85%
    05:00 +1°C° 0 mm 5 mps 756 mmHg 83%
    06:00 +1°C° 0 mm 5 mps 757 mmHg 80%
    07:00 +1°C° 0 mm 5 mps 758 mmHg 78%
    08:00 +1°C° 0 mm 5 mps 759 mmHg 75%
    09:00 +2°C° 0 mm 5 mps 759 mmHg 71%
    10:00 +4°C° 0 mm 4 mps 759 mmHg 66%
    11:00 +5°C° 0 mm 4 mps 760 mmHg 61%
    12:00 +5°C° 0 mm 3 mps 760 mmHg 64%
    13:00 +7°C° 0 mm 3 mps 759 mmHg 66%
    14:00 +7°C° 0 mm 3 mps 759 mmHg 68%
    15:00 +7°C° 0 mm 3 mps 759 mmHg 72%
    16:00 +5°C° 0 mm 3 mps 758 mmHg 75%
    17:00 +5°C° 0 mm 3 mps 758 mmHg 79%
    18:00 +4°C° 0 mm 4 mps 757 mmHg 76%
    19:00 +4°C° 0 mm 4 mps 757 mmHg 74%
    20:00 +3°C° 0 mm 4 mps 756 mmHg 72%
    21:00 +3°C° 0 mm 4 mps 755 mmHg 73%
    22:00 +1°C° 0 mm 5 mps 754 mmHg 74%
    23:00 +1°C° 0 mm 5 mps 753 mmHg 75%

    9 April, Thursday

    Time Temperature Precipitation Wind Pressure Humidity
    00:00 +1°C° 0 mm 5 mps 753 mmHg 78%
    01:00 +1°C° 0 mm 5 mps 752 mmHg 81%
    02:00 +1°C° 0 mm 5 mps 751 mmHg 83%
    03:00 +1°C° 0 mm 4 mps 751 mmHg 85%
    04:00 0°C° 0 mm 4 mps 750 mmHg 86%
    05:00 0°C° 0 mm 4 mps 750 mmHg 88%
    06:00 0°C° 0 mm 4 mps 749 mmHg 88%
    07:00 +2°C° 0 mm 3 mps 749 mmHg 89%
    08:00 +2°C° 0 mm 3 mps 748 mmHg 89%
    09:00 +2°C° 0.6 mm 3 mps 748 mmHg 91%
    10:00 +2°C° 0.6 mm 2 mps 748 mmHg 94%
    11:00 +2°C° 0.6 mm 2 mps 748 mmHg 96%
    12:00 +3°C° 0.5 mm 1 mps 748 mmHg 93%
    13:00 +4°C° 0.5 mm 1 mps 748 mmHg 91%
    14:00 +4°C° 0.5 mm 1 mps 748 mmHg 88%
    15:00 +4°C° 0 mm 1 mps 748 mmHg 86%
    16:00 +4°C° 0 mm 1 mps 748 mmHg 84%
    17:00 +4°C° 0 mm 1 mps 748 mmHg 83%
    18:00 +4°C° 0.1 mm 1 mps 749 mmHg 85%
    19:00 +3°C° 0.1 mm 1 mps 749 mmHg 87%
    20:00 +2°C° 0.1 mm 1 mps 749 mmHg 89%
    21:00 +1°C° 0 mm 1 mps 750 mmHg 89%
    22:00 -1°C° 0 mm 2 mps 750 mmHg 89%
    23:00 -1°C° 0 mm 2 mps 750 mmHg 90%

    10 April, Friday

    Time Temperature Precipitation Wind Pressure Humidity
    00:00 -2°C° 0 mm 2 mps 751 mmHg 89%
    01:00 -2°C° 0 mm 3 mps 751 mmHg 89%
    02:00 -2°C° 0 mm 3 mps 752 mmHg 89%
    03:00 -2°C° 0 mm 3 mps 752 mmHg 88%
    04:00 -4°C° 0 mm 3 mps 753 mmHg 87%
    05:00 -4°C° 0 mm 4 mps 754 mmHg 86%
    06:00 -4°C° 0 mm 4 mps 754 mmHg 80%
    07:00 -2°C° 0 mm 3 mps 755 mmHg 75%
    08:00 -2°C° 0 mm 3 mps 755 mmHg 69%
    09:00 -2°C° 0 mm 3 mps 756 mmHg 65%
    10:00 -1°C° 0 mm 3 mps 756 mmHg 61%
    11:00 +1°C° 0 mm 2 mps 756 mmHg 58%
    12:00 +1°C° 0 mm 2 mps 757 mmHg 56%
    13:00 +1°C° 0 mm 2 mps 757 mmHg 55%
    14:00 +1°C° 0 mm 2 mps 757 mmHg 53%
    15:00 +1°C° 0 mm 2 mps 757 mmHg 54%
    16:00 +2°C° 0 mm 1 mps 757 mmHg 55%
    17:00 +1°C° 0 mm 1 mps 757 mmHg 56%
    18:00 0°C° 0 mm 1 mps 757 mmHg 61%
    19:00 0°C° 0 mm 1 mps 756 mmHg 65%
    20:00 -1°C° 0 mm 1 mps 756 mmHg 70%
    21:00 -1°C° 0 mm 1 mps 756 mmHg 70%
    22:00 -1°C° 0 mm 1 mps 756 mmHg 70%
    23:00 -1°C° 0 mm 1 mps 756 mmHg 71%
    Show more